Regional Weather Roundup
Issued by NWS Sioux Falls, SD

Home | Current Version | Previous Version | Graphics & Text | Print | Product List | Glossary On
Versions: 1 2 3 4 5 6 7 8 9 10 11 12 13 14 15 16 17 18 19 20 21 22 23 24 25 26 27 28 29 30 31 32 33 34 35 36 37 38 39 40 41 42 43 44 45 46 47 48 49 50
000
ASUS43 KFSD 040810
RWRFSD

WEATHER ROUNDUP FOR SE SOUTH DAKOTA/SW MINNESOTA/NW IOWA
NATIONAL WEATHER SERVICE SIOUX FALLS SD
300 AM CDT SAT JUL 04 2015

NOTE: "FAIR" INDICATES FEW OR NO CLOUDS BELOW 12,000 FEET WITH NO
SIGNIFICANT WEATHER AND OR OBSTRUCTIONS TO VISIBILITY.


SDZ038>040-050-052>070-040900-
SOUTHEAST SOUTH DAKOTA

CITY           SKY/WX    TMP DP  RH WIND       PRES   REMARKS
BROOKINGS      CLEAR     64  61  88 S5        29.98F
CHAMBERLAIN    CLEAR     64  63  95 SE7       29.93F
HURON          CLEAR     66  63  90 S7        29.93S
MADISON        FAIR      63  63 100 S7        29.98S
MITCHELL       CLEAR     68  64  87 S6        29.95S
SIOUX FALLS    CLEAR     67  60  78 CALM      29.97S
WINNER         FAIR      70  60  70 S12       29.93F
YANKTON        CLEAR     63  61  94 CALM      29.96R
$$

MNZ071-072-080-081-089-090-097-098-040900-
SOUTHWEST MINNESOTA

CITY           SKY/WX    TMP DP  RH WIND       PRES   REMARKS
FAIRMONT       PTCLDY    63  54  72 SW6       29.96R
JACKSON        CLEAR     64  57  77 SW6       29.98S
MARSHALL       CLEAR     68  61  77 W9          N/A
MONTEVIDEO     CLEAR     64  63  94 CALM      29.94R FOG
PIPESTONE      CLEAR     63  61  94 CALM      29.98S FOG
REDWOOD FALLS  CLEAR     66  62  87 SW3       29.93S
TRACY          CLEAR     67  64  89 SW8       29.96R
WINDOM         CLEAR     64  59  82 SW5       29.97S
WORTHINGTON    CLEAR     64  55  72 SW9       29.98S
$$

IAZ001>003-012>014-020>022-031-032-NEZ013-014-SDZ071-040900-
NORTHWEST IOWA

CITY           SKY/WX    TMP DP  RH WIND       PRES   REMARKS
CHEROKEE       CLEAR     56  56 100 CALM      29.99S
DENISON        CLOUDY    55  54  94 CALM      29.98S
ESTHERVILLE    CLEAR     59  56  89 SW7       29.97S
LE MARS          N/A     59  57  94 CALM      29.99S
ORANGE CITY    CLEAR     61  55  82 CALM      29.99S
SHELDON        MOCLDY    57  57 100 CALM      29.98S
SIOUX CITY     CLEAR     60  56  86 E6        29.98S
SPENCER        CLEAR     58  54  86 SW3       29.98S
STORM LAKE     CLEAR     61  55  82 SW7       30.00S
$$

ABBREVIATIONS USED IN REMARKS
   TC - TEMPERATURE IN CELSIUS
  WCI - WIND CHILL INDEX
   HX - HEAT INDEX
  VSB - VISIBILITY




USA.gov is the U.S. government's official web portal to all federal, state and local government web resources and services.